Miscellaneous Local Product
Issued by NWS North Platte, NE

Home | Current Version | Previous Version | Graphics & Text | Print | Product List | Glossary On
Versions: 1 2 3 4 5 6 7 8 9 10 11 12 13 14 15 16 17 18 19 20 21 22 23 24 25 26 27 28 29 30 31 32 33 34 35 36 37 38 39 40 41 42 43 44 45 46 47 48 49 50
000
AXUS43 KLBF 270410
MISLBF


WESTERN AND NORTH CENTRAL NEBRASKA HOURLY WEATHER ROUNDUP
NATIONAL WEATHER SERVICE NORTH PLATTE NE
1100 PM CDT FRI AUG 26 2016

NOTE: "FAIR" INDICATES FEW OR NO CLOUDS BELOW 12,000 FEET WITH NO
SIGNIFICANT WEATHER AND/OR OBSTRUCTIONS TO VISIBILITY.

NOTE: STATIONS NOT REPORTING VARIABLES SUCH AS SKY/WEATHER OR
PRESSURE ARE PROVIDED BY RAWS AND APRS NETWORKS AND ARE NOT UNDER
NATIONAL WEATHER SERVICE QUALITY CONTROL.

...OBSERVATIONS IN AND NEAR THE EASTERN PANHANDLE OF NEBRASKA...

CITY           SKY/WX    TMP DP  RH WIND       PRES   REMARKS
PINE RIDGE     CLEAR     60  55  83 S8        30.07R
CHADRON        CLEAR     59  53  80 NE3       30.06R
ALLIANCE       CLEAR     53  52  96 S8        30.07R
SIDNEY         CLOUDY    55  53  93 S7        30.10S
CRESCENT LAKE    N/A     55  54  98 S5          N/A
$$

...OBSERVATIONS IN NORTHERN NEBRASKA AND FAR SOUTHERN SOUTH DAKOTA...

CITY           SKY/WX    TMP DP  RH WIND       PRES   REMARKS
WINNER         FAIR      59  56  89 SE5       30.05R
VALENTINE      CLOUDY    57  55  93 E3        30.05S
THEDFORD       MOCLDY    59  57  96 SE3       30.06F
AINSWORTH      MOCLDY    60  56  85 SE3       30.06F
O`NEILL        CLOUDY    65  58  79 SE8       30.06F
ORD            CLOUDY    64  60  87 E6        30.04F
BROKEN BOW     CLOUDY    63  61  93 S3        30.07R
VALENTINE NWR    N/A     56  55  98 SE3         N/A
BUTTE            N/A     61  56  84 E3          N/A
HALSEY           N/A     60  57  90 E3          N/A
EWING            N/A     62  60  95 E3          N/A
$$

...OBSERVATIONS IN SOUTHWEST NEBRASKA AND FAR NORTHEAST COLORADO...

CITY           SKY/WX    TMP DP  RH WIND       PRES   REMARKS
WRAY           FAIR      55  55 100 SE5       30.08S
HOLYOKE        CLOUDY    59  55  88 S3        30.09S FOG
IMPERIAL       CLEAR     54  53  97 CALM      30.08R
OGALLALA       FOG       55  53  93 SW3       30.08R VSB 3/4
NORTH PLATTE   PTCLDY    58  56  93 CALM      30.05S
MCCOOK         PTCLDY    56  53  90 SW6       30.06R
LEXINGTON      CLOUDY    66  57  71 W12G28    30.05R
STAPLETON        N/A     58  56  95 CALM        N/A
GOTHENBURG       N/A     64  57  79 W8          N/A
CALLAWAY         N/A     61  58  90 E3          N/A
$$

...OBSERVATIONS IN CENTRAL LINCOLN COUNTY AREA...

CITY           SKY/WX    TMP DP  RH WIND       PRES   REMARKS
N.P. AIRPORT   PTCLDY    58  56  93 CALM      30.05S
N.P. DOWNTOWN    N/A     59  57  94 CALM        N/A
N.P. SOUTHEAST   N/A     59  57  92 CALM        N/A
N.P. HILLCREST   N/A     59  57  92 E6          N/A
$$

...SOME OBSERVATIONS FROM AROUND THE REGION...

CITY           SKY/WX    TMP DP  RH WIND       PRES   REMARKS
DENVER         PTCLDY    60  49  66 SE13      30.12S
LARAMIE        CLOUDY    55  34  45 SW14      30.20R
CHEYENNE       CLEAR     54  50  86 S8        30.17R
SCOTTSBLUFF    PTCLDY    57  54  89 E10       30.07R
RAPID CITY     CLOUDY    57  55  93 CALM      30.04F
BISMARCK       CLEAR     57  53  86 S7        30.01S
PIERRE         CLOUDY    57  53  86 SE5       30.02F
SIOUX FALLS    CLOUDY    66  59  78 SE12      30.08S
OMAHA          CLOUDY    67  62  84 SE3       30.06F
GRAND ISLAND   CLOUDY    64  62  93 CALM      30.07R
KANSAS CITY    CLOUDY    69  67  93 S6        30.04S
WICHITA        PTCLDY    74  69  85 S9        30.02R
OKLAHOMA CITY  MOCLDY    72  69  90 S7        30.03S
DALLAS         CLOUDY    78  69  73 S7        30.02R
AMARILLO       LGT RAIN  65  59  81 S12       30.15R
DODGE CITY     PTCLDY    67  64  90 E6        30.05R
HAYS           CLOUDY    68  59  73 E7        30.04R
GOODLAND       CLOUDY    54  51  90 E3        30.08S
$$




USA.gov is the U.S. government's official web portal to all federal, state and local government web resources and services.